When you browse on this site, cookies collect data to enhance your experience and personalize the content and advertising you see.
Visit our Privacy Policy to learn more. By continuing to use the site, you agree to this use of cookies and data.
  • In Hungary
  • List of Countries
  • For 7 days
  • Water Temperature
  • Satellite Maps
  • Weather Map
  • News
  • Weather Widgets
  • user-avatar
    Login

    Hourly Weather Belize

    Today, 13 December, Thursday

    Time Temperature Precipitation Wind Pressure Humidity
    00:00 +22°C° 0.6 mm 3 mps 761 mmHg 96%
    01:00 +22°C° 0.5 mm 3 mps 761 mmHg 97%
    02:00 +22°C° 0.5 mm 3 mps 760 mmHg 98%
    03:00 +22°C° 0.5 mm 3 mps 760 mmHg 98%
    04:00 +23°C° 0 mm 2 mps 760 mmHg 98%
    05:00 +23°C° 0 mm 2 mps 760 mmHg 98%
    06:00 +23°C° 0 mm 2 mps 760 mmHg 98%
    07:00 +25°C° 0 mm 2 mps 760 mmHg 90%
    08:00 +27°C° 0 mm 2 mps 761 mmHg 82%
    09:00 +29°C° 0 mm 2 mps 761 mmHg 75%
    10:00 +30°C° 0 mm 3 mps 761 mmHg 68%
    11:00 +31°C° 0 mm 3 mps 760 mmHg 62%
    12:00 +33°C° 0 mm 4 mps 760 mmHg 55%
    13:00 +33°C° 0 mm 4 mps 759 mmHg 57%
    14:00 +33°C° 0 mm 4 mps 759 mmHg 58%
    15:00 +32°C° 0 mm 4 mps 758 mmHg 59%
    16:00 +29°C° 0 mm 4 mps 758 mmHg 68%
    17:00 +27°C° 0 mm 4 mps 758 mmHg 77%
    18:00 +25°C° 0 mm 4 mps 758 mmHg 86%
    19:00 +25°C° 0 mm 4 mps 758 mmHg 89%
    20:00 +25°C° 0 mm 4 mps 759 mmHg 92%
    21:00 +23°C° 0 mm 5 mps 759 mmHg 95%
    22:00 +23°C° 0 mm 5 mps 759 mmHg 95%
    23:00 +25°C° 0 mm 5 mps 759 mmHg 95%

    Tomorrow, 14 December, Friday

    Time Temperature Precipitation Wind Pressure Humidity
    00:00 +25°C° 0 mm 5 mps 759 mmHg 94%
    01:00 +25°C° 0 mm 5 mps 759 mmHg 95%
    02:00 +25°C° 0 mm 5 mps 759 mmHg 96%
    03:00 +25°C° 0 mm 5 mps 758 mmHg 98%
    04:00 +25°C° 0 mm 4 mps 759 mmHg 98%
    05:00 +25°C° 0 mm 4 mps 759 mmHg 98%
    06:00 +25°C° 0 mm 4 mps 759 mmHg 98%
    07:00 +27°C° 0 mm 4 mps 760 mmHg 91%
    08:00 +29°C° 0 mm 3 mps 760 mmHg 83%
    09:00 +31°C° 0 mm 3 mps 761 mmHg 75%
    10:00 +31°C° 0.1 mm 3 mps 761 mmHg 72%
    11:00 +33°C° 0.1 mm 3 mps 760 mmHg 70%
    12:00 +32°C° 0.1 mm 2 mps 760 mmHg 68%
    13:00 +31°C° 0.7 mm 2 mps 760 mmHg 74%
    14:00 +30°C° 0.7 mm 2 mps 759 mmHg 80%
    15:00 +29°C° 0.7 mm 1 mps 759 mmHg 86%
    16:00 +28°C° 0.2 mm 2 mps 759 mmHg 90%
    17:00 +27°C° 0.2 mm 2 mps 760 mmHg 93%
    18:00 +25°C° 0.2 mm 2 mps 760 mmHg 97%
    19:00 +25°C° 0.3 mm 3 mps 761 mmHg 97%
    20:00 +25°C° 0.3 mm 3 mps 762 mmHg 97%
    21:00 +23°C° 0.3 mm 4 mps 763 mmHg 97%
    22:00 +22°C° 0.3 mm 5 mps 763 mmHg 97%
    23:00 +22°C° 0.3 mm 6 mps 763 mmHg 97%

    Day after tomorrow, 15 December, Saturday

    Time Temperature Precipitation Wind Pressure Humidity
    00:00 +21°C° 0.3 mm 7 mps 763 mmHg 96%
    01:00 +21°C° 0.1 mm 7 mps 763 mmHg 96%
    02:00 +20°C° 0.1 mm 7 mps 763 mmHg 95%
    03:00 +20°C° 0.1 mm 7 mps 763 mmHg 95%
    04:00 +18°C° 0 mm 7 mps 763 mmHg 94%
    05:00 +19°C° 0 mm 6 mps 764 mmHg 92%
    06:00 +19°C° 0 mm 6 mps 764 mmHg 91%
    07:00 +20°C° 0 mm 6 mps 765 mmHg 85%
    08:00 +21°C° 0 mm 6 mps 766 mmHg 80%
    09:00 +22°C° 0 mm 6 mps 766 mmHg 74%
    10:00 +23°C° 0 mm 6 mps 766 mmHg 67%
    11:00 +25°C° 0 mm 5 mps 766 mmHg 60%
    12:00 +27°C° 0 mm 5 mps 765 mmHg 53%
    13:00 +27°C° 0 mm 5 mps 765 mmHg 53%
    14:00 +27°C° 0 mm 4 mps 764 mmHg 52%
    15:00 +28°C° 0 mm 4 mps 764 mmHg 51%
    16:00 +26°C° 0 mm 3 mps 764 mmHg 58%
    17:00 +25°C° 0 mm 3 mps 764 mmHg 65%
    18:00 +22°C° 0 mm 3 mps 765 mmHg 73%
    19:00 +22°C° 0 mm 3 mps 765 mmHg 77%
    20:00 +21°C° 0 mm 3 mps 766 mmHg 81%
    21:00 +20°C° 0 mm 4 mps 766 mmHg 85%
    22:00 +20°C° 0 mm 4 mps 766 mmHg 84%
    23:00 +21°C° 0 mm 4 mps 766 mmHg 82%

    16 December, Sunday

    Time Temperature Precipitation Wind Pressure Humidity
    00:00 +21°C° 0 mm 4 mps 766 mmHg 81%
    01:00 +20°C° 0 mm 5 mps 766 mmHg 82%
    02:00 +20°C° 0 mm 5 mps 765 mmHg 83%
    03:00 +19°C° 0 mm 5 mps 765 mmHg 85%
    04:00 +19°C° 0 mm 5 mps 765 mmHg 83%
    05:00 +19°C° 0 mm 6 mps 766 mmHg 81%
    06:00 +20°C° 0 mm 6 mps 766 mmHg 79%
    07:00 +20°C° 0 mm 6 mps 766 mmHg 76%
    08:00 +21°C° 0 mm 5 mps 767 mmHg 73%
    09:00 +22°C° 0 mm 5 mps 767 mmHg 70%
    10:00 +25°C° 0 mm 5 mps 767 mmHg 64%
    11:00 +26°C° 0 mm 5 mps 766 mmHg 58%
    12:00 +28°C° 0 mm 4 mps 766 mmHg 52%
    13:00 +28°C° 0 mm 4 mps 765 mmHg 53%
    14:00 +28°C° 0 mm 4 mps 764 mmHg 53%
    15:00 +28°C° 0 mm 4 mps 764 mmHg 54%
    16:00 +27°C° 0 mm 4 mps 764 mmHg 59%
    17:00 +26°C° 0 mm 3 mps 764 mmHg 64%
    18:00 +24°C° 0 mm 3 mps 765 mmHg 69%
    19:00 +24°C° 0 mm 3 mps 765 mmHg 70%
    20:00 +23°C° 0 mm 4 mps 765 mmHg 71%
    21:00 +23°C° 0 mm 4 mps 766 mmHg 71%
    22:00 +22°C° 0 mm 4 mps 765 mmHg 75%
    23:00 +21°C° 0 mm 4 mps 765 mmHg 79%

    17 December, Monday

    Time Temperature Precipitation Wind Pressure Humidity
    00:00 +20°C° 0 mm 5 mps 765 mmHg 82%
    01:00 +20°C° 0 mm 5 mps 765 mmHg 83%
    02:00 +19°C° 0 mm 5 mps 764 mmHg 84%
    03:00 +19°C° 0 mm 5 mps 764 mmHg 85%
    04:00 +19°C° 0 mm 6 mps 765 mmHg 86%
    05:00 +19°C° 0 mm 6 mps 765 mmHg 86%
    06:00 +17°C° 0 mm 6 mps 765 mmHg 86%
    07:00 +20°C° 0 mm 6 mps 766 mmHg 80%
    08:00 +21°C° 0 mm 6 mps 766 mmHg 73%
    09:00 +22°C° 0 mm 6 mps 767 mmHg 67%
    10:00 +25°C° 0 mm 5 mps 766 mmHg 62%
    11:00 +26°C° 0 mm 5 mps 765 mmHg 58%
    12:00 +28°C° 0 mm 5 mps 765 mmHg 53%
    13:00 +27°C° 0 mm 4 mps 764 mmHg 54%
    14:00 +27°C° 0 mm 4 mps 764 mmHg 56%
    15:00 +27°C° 0 mm 4 mps 763 mmHg 57%
    16:00 +26°C° 0 mm 4 mps 763 mmHg 62%
    17:00 +25°C° 0 mm 4 mps 764 mmHg 66%
    18:00 +24°C° 0 mm 3 mps 764 mmHg 71%
    19:00 +22°C° 0 mm 3 mps 764 mmHg 72%
    20:00 +22°C° 0 mm 4 mps 764 mmHg 73%
    21:00 +22°C° 0 mm 4 mps 765 mmHg 74%
    22:00 +21°C° 0 mm 4 mps 764 mmHg 76%
    23:00 +21°C° 0 mm 4 mps 764 mmHg 78%

    18 December, Tuesday

    Time Temperature Precipitation Wind Pressure Humidity
    00:00 +20°C° 0 mm 4 mps 764 mmHg 80%
    01:00 +20°C° 0 mm 4 mps 764 mmHg 82%
    02:00 +19°C° 0 mm 5 mps 764 mmHg 84%
    03:00 +19°C° 0 mm 5 mps 763 mmHg 86%
    04:00 +19°C° 0 mm 5 mps 764 mmHg 85%
    05:00 +19°C° 0 mm 5 mps 764 mmHg 85%
    06:00 +19°C° 0 mm 5 mps 764 mmHg 85%
    07:00 +20°C° 0 mm 5 mps 765 mmHg 79%
    08:00 +21°C° 0 mm 5 mps 765 mmHg 74%
    09:00 +22°C° 0 mm 5 mps 765 mmHg 68%
    10:00 +25°C° 0 mm 5 mps 765 mmHg 63%
    11:00 +26°C° 0 mm 4 mps 764 mmHg 57%
    12:00 +28°C° 0 mm 4 mps 764 mmHg 51%
    13:00 +28°C° 0 mm 4 mps 763 mmHg 52%
    14:00 +28°C° 0 mm 4 mps 763 mmHg 54%
    15:00 +28°C° 0 mm 3 mps 762 mmHg 55%
    16:00 +27°C° 0 mm 3 mps 762 mmHg 59%
    17:00 +25°C° 0 mm 3 mps 763 mmHg 63%
    18:00 +24°C° 0 mm 3 mps 763 mmHg 67%
    19:00 +24°C° 0 mm 3 mps 763 mmHg 68%
    20:00 +22°C° 0 mm 3 mps 763 mmHg 70%
    21:00 +22°C° 0 mm 3 mps 764 mmHg 71%
    22:00 +22°C° 0 mm 3 mps 763 mmHg 73%
    23:00 +22°C° 0 mm 3 mps 763 mmHg 75%
    Show more